Location: Lahas
(43.5538°N, 0.8906°E)
Time: 11:17:56
(UTC+00:00)

Cosmos 1072 Rocket - Pass Details

Date: 15 May 2026
Orbit: 949 x 1007 km, 82.9° (Epoch: 8 June)

Event Time Altitude Azimuth Distance (km) Brightness Sun altitude
Exits shadow 21:36:50 24° 189° (S) 1,896 5.6 -20.1°
Maximum altitude 21:40:50 86° 278° (W) 993 4.5 -20.5°
Drops below altitude 10° 21:47:12 10° 7° (N) 2,770 7.6 -21.1°
Sets 21:49:46 0° 8° (N) 3,730 8.3 -21.3°
